Year,Month,Day,Hour,Minute,Value (Times are PST for temperature in C)
2008,09,01,00,00,11.40
2008,09,01,00,01,11.40
2008,09,01,00,02,11.40
2008,09,01,00,03,11.40
2008,09,01,00,04,11.30
2008,09,01,00,05,11.30
2008,09,01,00,06,11.30
2008,09,01,00,07,11.30
2008,09,01,00,08,11.20
2008,09,01,00,09,11.20
2008,09,01,00,10,11.10
2008,09,01,00,11,11.10
2008,09,01,00,12,11.00
2008,09,01,00,13,10.90
2008,09,01,00,14,10.80
2008,09,01,00,15,10.70
2008,09,01,00,16,10.70
2008,09,01,00,17,10.60
2008,09,01,00,18,10.60
2008,09,01,00,19,10.60
2008,09,01,00,20,10.60
2008,09,01,00,21,10.60
2008,09,01,00,22,10.60
2008,09,01,00,23,10.60
2008,09,01,00,24,10.60
2008,09,01,00,25,10.60
2008,09,01,00,26,10.60
2008,09,01,00,27,10.60
2008,09,01,00,28,10.60
2008,09,01,00,29,10.60
2008,09,01,00,30,10.60
2008,09,01,00,31,10.60
2008,09,01,00,32,10.60
2008,09,01,00,33,10.60
2008,09,01,00,34,10.60
2008,09,01,00,35,10.60
2008,09,01,00,36,10.60
2008,09,01,00,37,10.60
2008,09,01,00,38,10.60
2008,09,01,00,39,10.60
2008,09,01,00,40,10.60
2008,09,01,00,41,10.60
2008,09,01,00,42,10.60
2008,09,01,00,43,10.60
2008,09,01,00,44,10.60
2008,09,01,00,45,10.60
2008,09,01,00,46,10.60
2008,09,01,00,47,10.60
2008,09,01,00,48,10.60
2008,09,01,00,49,10.40
2008,09,01,00,50,10.40
2008,09,01,00,51,10.40
2008,09,01,00,52,10.40
2008,09,01,00,53,10.40
2008,09,01,00,54,10.40
2008,09,01,00,55,10.40
2008,09,01,00,56,10.40
2008,09,01,00,57,10.30
2008,09,01,00,58,10.30
2008,09,01,00,59,10.30
2008,09,01,01,00,10.30
2008,09,01,01,01,10.30
2008,09,01,01,02,10.30
2008,09,01,01,03,10.30
2008,09,01,01,04,10.30
2008,09,01,01,05,10.40
2008,09,01,01,06,10.40
2008,09,01,01,07,10.40
2008,09,01,01,08,10.40
2008,09,01,01,09,10.40
2008,09,01,01,10,10.40
2008,09,01,01,11,10.40
2008,09,01,01,12,10.40
2008,09,01,01,13,10.40
2008,09,01,01,14,10.30
2008,09,01,01,15,10.30
2008,09,01,01,16,10.30
2008,09,01,01,17,10.20
2008,09,01,01,18,10.20
2008,09,01,01,19,10.20
2008,09,01,01,20,10.20
2008,09,01,01,21,10.20
2008,09,01,01,22,10.20
2008,09,01,01,23,10.20
2008,09,01,01,24,10.20
2008,09,01,01,25,10.20
2008,09,01,01,26,10.20
2008,09,01,01,27,10.20
2008,09,01,01,28,10.20
2008,09,01,01,29,10.20
2008,09,01,01,30,10.20
2008,09,01,01,31,10.10
2008,09,01,01,32,10.10
2008,09,01,01,33,10.10
2008,09,01,01,34,10.10
2008,09,01,01,35,10.10
2008,09,01,01,36,10.10
2008,09,01,01,37,10.10
2008,09,01,01,38,9.90
2008,09,01,01,39,9.90
2008,09,01,01,40,9.90
2008,09,01,01,41,9.90
2008,09,01,01,42,9.90
2008,09,01,01,43,9.90
2008,09,01,01,44,10.00
2008,09,01,01,45,10.10
2008,09,01,01,46,10.10
2008,09,01,01,47,10.10
2008,09,01,01,48,10.10
2008,09,01,01,49,10.10
2008,09,01,01,50,10.10
2008,09,01,01,51,10.00
2008,09,01,01,52,9.90
2008,09,01,01,53,9.90
2008,09,01,01,54,9.90
2008,09,01,01,55,9.90
2008,09,01,01,56,9.90
2008,09,01,01,57,9.90
2008,09,01,01,58,9.90
2008,09,01,01,59,9.90
2008,09,01,02,00,9.80
2008,09,01,02,01,9.70
2008,09,01,02,02,9.70
2008,09,01,02,03,9.60
2008,09,01,02,04,9.50
2008,09,01,02,05,9.40
2008,09,01,02,06,9.40
2008,09,01,02,07,9.30
2008,09,01,02,08,9.30
2008,09,01,02,09,9.30
2008,09,01,02,10,9.30
2008,09,01,02,11,9.30
2008,09,01,02,12,9.20
2008,09,01,02,13,9.20
2008,09,01,02,14,9.20
2008,09,01,02,15,9.20
2008,09,01,02,16,9.20
2008,09,01,02,17,9.20
2008,09,01,02,18,9.20
2008,09,01,02,19,9.20
2008,09,01,02,20,9.20
2008,09,01,02,21,9.20
2008,09,01,02,22,9.20
2008,09,01,02,23,9.20
2008,09,01,02,24,9.20
2008,09,01,02,25,9.10
2008,09,01,02,26,9.10
2008,09,01,02,27,9.00
2008,09,01,02,28,9.00
2008,09,01,02,29,9.00
2008,09,01,02,30,9.00
2008,09,01,02,31,9.00
2008,09,01,02,32,9.10
2008,09,01,02,33,9.10
2008,09,01,02,34,9.20
2008,09,01,02,35,9.20
2008,09,01,02,36,9.30
2008,09,01,02,37,9.30
2008,09,01,02,38,9.40
2008,09,01,02,39,9.40
2008,09,01,02,40,9.40
2008,09,01,02,41,9.40
2008,09,01,02,42,9.40
2008,09,01,02,43,9.40
2008,09,01,02,44,9.40
2008,09,01,02,45,9.30
2008,09,01,02,46,9.30
2008,09,01,02,47,9.20
2008,09,01,02,48,9.20
2008,09,01,02,49,9.20
2008,09,01,02,50,9.20
2008,09,01,02,51,9.10
2008,09,01,02,52,9.10
2008,09,01,02,53,9.00
2008,09,01,02,54,9.00
2008,09,01,02,55,9.00
2008,09,01,02,56,9.00
2008,09,01,02,57,9.00
2008,09,01,02,58,9.10
2008,09,01,02,59,9.10
2008,09,01,03,00,9.10
2008,09,01,03,01,9.20
2008,09,01,03,02,9.20
2008,09,01,03,03,9.20
2008,09,01,03,04,9.20
2008,09,01,03,05,9.20
2008,09,01,03,06,9.20
2008,09,01,03,07,9.20
2008,09,01,03,08,9.20
2008,09,01,03,09,9.20
2008,09,01,03,10,9.20
2008,09,01,03,11,9.20
2008,09,01,03,12,9.20
2008,09,01,03,13,9.20
2008,09,01,03,14,9.20
2008,09,01,03,15,9.20
2008,09,01,03,16,9.20
2008,09,01,03,17,9.20
2008,09,01,03,18,9.20
2008,09,01,03,19,9.10
2008,09,01,03,20,9.10
2008,09,01,03,21,9.00
2008,09,01,03,22,9.00
2008,09,01,03,23,9.00
2008,09,01,03,24,9.00
2008,09,01,03,25,8.90
2008,09,01,03,26,8.90
2008,09,01,03,27,8.90
2008,09,01,03,28,8.90
2008,09,01,03,29,8.90
2008,09,01,03,30,8.90
2008,09,01,03,31,8.80
2008,09,01,03,32,8.80
2008,09,01,03,33,8.70
2008,09,01,03,34,8.70
2008,09,01,03,35,8.70
2008,09,01,03,36,8.80
2008,09,01,03,37,8.80
2008,09,01,03,38,8.80
2008,09,01,03,39,8.80
2008,09,01,03,40,8.80
2008,09,01,03,41,8.70
2008,09,01,03,42,8.70
2008,09,01,03,43,8.70
2008,09,01,03,44,8.70
2008,09,01,03,45,8.70
2008,09,01,03,46,8.80
2008,09,01,03,47,9.00
2008,09,01,03,48,9.00
2008,09,01,03,49,9.00
2008,09,01,03,50,9.00
2008,09,01,03,51,9.00
2008,09,01,03,52,9.00
2008,09,01,03,53,8.90
2008,09,01,03,54,8.90
2008,09,01,03,55,8.90
2008,09,01,03,56,8.90
2008,09,01,03,57,8.90
2008,09,01,03,58,8.90
2008,09,01,03,59,8.90
2008,09,01,04,00,8.80
2008,09,01,04,01,8.70
2008,09,01,04,02,8.70
2008,09,01,04,03,8.70
2008,09,01,04,04,8.70
2008,09,01,04,05,8.70
2008,09,01,04,06,8.80
2008,09,01,04,07,8.80
2008,09,01,04,08,8.80
2008,09,01,04,09,8.80
2008,09,01,04,10,8.80
2008,09,01,04,11,8.80
2008,09,01,04,12,8.80
2008,09,01,04,13,8.80
2008,09,01,04,14,8.80
2008,09,01,04,15,8.80
2008,09,01,04,16,8.80
2008,09,01,04,17,8.70
2008,09,01,04,18,8.70
2008,09,01,04,19,8.70
2008,09,01,04,20,8.70
2008,09,01,04,21,8.70
2008,09,01,04,22,8.70
2008,09,01,04,23,8.70
2008,09,01,04,24,8.80
2008,09,01,04,25,8.80
2008,09,01,04,26,8.80
2008,09,01,04,27,8.80
2008,09,01,04,28,8.80
2008,09,01,04,29,8.80
2008,09,01,04,30,8.70
2008,09,01,04,31,8.70
2008,09,01,04,32,8.70
2008,09,01,04,33,8.70
2008,09,01,04,34,8.70
2008,09,01,04,35,8.70
2008,09,01,04,36,8.70
2008,09,01,04,37,8.70
2008,09,01,04,38,8.70
2008,09,01,04,39,8.70
2008,09,01,04,40,8.60
2008,09,01,04,41,8.50
2008,09,01,04,42,8.40
2008,09,01,04,43,8.30
2008,09,01,04,44,8.10
2008,09,01,04,45,8.00
2008,09,01,04,46,7.90
2008,09,01,04,47,7.90
2008,09,01,04,48,7.80
2008,09,01,04,49,7.80
2008,09,01,04,50,7.80
2008,09,01,04,51,7.80
2008,09,01,04,52,7.90
2008,09,01,04,53,7.90
2008,09,01,04,54,8.00
2008,09,01,04,55,8.00
2008,09,01,04,56,8.10
2008,09,01,04,57,8.20
2008,09,01,04,58,8.20
2008,09,01,04,59,8.30
2008,09,01,05,00,8.30
2008,09,01,05,01,8.30
2008,09,01,05,02,8.30
2008,09,01,05,03,8.30
2008,09,01,05,04,8.30
2008,09,01,05,05,8.20
2008,09,01,05,06,8.20
2008,09,01,05,07,8.20
2008,09,01,05,08,8.10
2008,09,01,05,09,8.10
2008,09,01,05,10,8.10
2008,09,01,05,11,8.20
2008,09,01,05,12,8.20
2008,09,01,05,13,8.30
2008,09,01,05,14,8.30
2008,09,01,05,15,8.30
2008,09,01,05,16,8.30
2008,09,01,05,17,8.30
2008,09,01,05,18,8.30
2008,09,01,05,19,8.30
2008,09,01,05,20,8.30
2008,09,01,05,21,8.30
2008,09,01,05,22,8.20
2008,09,01,05,23,8.20
2008,09,01,05,24,8.20
2008,09,01,05,25,8.10
2008,09,01,05,26,8.10
2008,09,01,05,27,8.10
2008,09,01,05,28,8.10
2008,09,01,05,29,8.20
2008,09,01,05,30,8.20
2008,09,01,05,31,8.20
2008,09,01,05,32,8.20
2008,09,01,05,33,8.10
2008,09,01,05,34,8.10
2008,09,01,05,35,8.10
2008,09,01,05,36,8.10
2008,09,01,05,37,8.10
2008,09,01,05,38,8.20
2008,09,01,05,39,8.20
2008,09,01,05,40,8.20
2008,09,01,05,41,8.20
2008,09,01,05,42,8.10
2008,09,01,05,43,8.10
2008,09,01,05,44,8.10
2008,09,01,05,45,8.00
2008,09,01,05,46,8.00
2008,09,01,05,47,8.00
2008,09,01,05,48,7.90
2008,09,01,05,49,7.90
2008,09,01,05,50,7.90
2008,09,01,05,51,7.90
2008,09,01,05,52,7.90
2008,09,01,05,53,7.80
2008,09,01,05,54,7.80
2008,09,01,05,55,7.80
2008,09,01,05,56,7.80
2008,09,01,05,57,7.80
2008,09,01,05,58,7.80
2008,09,01,05,59,7.70
2008,09,01,06,00,7.70
2008,09,01,06,01,7.70
2008,09,01,06,02,7.60
2008,09,01,06,03,7.60
2008,09,01,06,04,7.60
2008,09,01,06,05,7.60
2008,09,01,06,06,7.60
2008,09,01,06,07,7.60
2008,09,01,06,08,7.60
2008,09,01,06,09,7.60
2008,09,01,06,10,7.60
2008,09,01,06,11,7.60
2008,09,01,06,12,7.70
2008,09,01,06,13,7.80
2008,09,01,06,14,7.80
2008,09,01,06,15,7.80
2008,09,01,06,16,7.80
2008,09,01,06,17,7.90
2008,09,01,06,18,7.90
2008,09,01,06,19,8.00
2008,09,01,06,20,8.00
2008,09,01,06,21,8.00
2008,09,01,06,22,8.10
2008,09,01,06,23,8.10
2008,09,01,06,24,8.10
2008,09,01,06,25,8.10
2008,09,01,06,26,8.10
2008,09,01,06,27,8.20
2008,09,01,06,28,8.20
2008,09,01,06,29,8.30
2008,09,01,06,30,8.30
2008,09,01,06,31,8.40
2008,09,01,06,32,8.40
2008,09,01,06,33,8.30
2008,09,01,06,34,8.30
2008,09,01,06,35,8.30
2008,09,01,06,36,8.30
2008,09,01,06,37,8.20
2008,09,01,06,38,8.20
2008,09,01,06,39,8.20
2008,09,01,06,40,8.20
2008,09,01,06,41,8.10
2008,09,01,06,42,8.10
2008,09,01,06,43,8.00
2008,09,01,06,44,8.00
2008,09,01,06,45,8.00
2008,09,01,06,46,8.00
2008,09,01,06,47,8.00
2008,09,01,06,48,7.90
2008,09,01,06,49,8.00
2008,09,01,06,50,8.00
2008,09,01,06,51,8.00
2008,09,01,06,52,8.10
2008,09,01,06,53,8.10
2008,09,01,06,54,8.10
2008,09,01,06,55,8.10
2008,09,01,06,56,8.10
2008,09,01,06,57,8.10
2008,09,01,06,58,8.10
2008,09,01,06,59,8.20
2008,09,01,07,00,8.20
2008,09,01,07,01,8.20
2008,09,01,07,02,8.10
2008,09,01,07,03,8.00
2008,09,01,07,04,8.00
2008,09,01,07,05,7.90
2008,09,01,07,06,7.90
2008,09,01,07,07,7.90
2008,09,01,07,08,7.90
2008,09,01,07,09,8.00
2008,09,01,07,10,8.00
2008,09,01,07,11,8.00
2008,09,01,07,12,8.00
2008,09,01,07,13,8.00
2008,09,01,07,14,8.00
2008,09,01,07,15,8.00
2008,09,01,07,16,8.00
2008,09,01,07,17,8.00
2008,09,01,07,18,8.00
2008,09,01,07,19,7.90
2008,09,01,07,20,7.90
2008,09,01,07,21,7.90
2008,09,01,07,22,7.90
2008,09,01,07,23,7.90
2008,09,01,07,24,8.00
2008,09,01,07,25,8.00
2008,09,01,07,26,8.10
2008,09,01,07,27,8.10
2008,09,01,07,28,8.20
2008,09,01,07,29,8.20
2008,09,01,07,30,8.20
2008,09,01,07,31,8.20
2008,09,01,07,32,8.20
2008,09,01,07,33,8.20
2008,09,01,07,34,8.20
2008,09,01,07,35,8.20
2008,09,01,07,36,8.20
2008,09,01,07,37,8.20
2008,09,01,07,38,8.20
2008,09,01,07,39,8.20
2008,09,01,07,40,8.20
2008,09,01,07,41,8.10
2008,09,01,07,42,8.10
2008,09,01,07,43,8.10
2008,09,01,07,44,8.10
2008,09,01,07,45,8.20
2008,09,01,07,46,8.20
2008,09,01,07,47,8.20
2008,09,01,07,48,8.20
2008,09,01,07,49,8.20
2008,09,01,07,50,8.20
2008,09,01,07,51,8.30
2008,09,01,07,52,8.30
2008,09,01,07,53,8.40
2008,09,01,07,54,8.40
2008,09,01,07,55,8.50
2008,09,01,07,56,8.50
2008,09,01,07,57,8.60
2008,09,01,07,58,8.70
2008,09,01,07,59,8.70
2008,09,01,08,00,8.80
2008,09,01,08,01,8.80
2008,09,01,08,02,8.90
2008,09,01,08,03,9.00
2008,09,01,08,04,9.00
2008,09,01,08,05,9.10
2008,09,01,08,06,9.10
2008,09,01,08,07,9.20
2008,09,01,08,08,9.20
2008,09,01,08,09,9.20
2008,09,01,08,10,9.30
2008,09,01,08,11,9.30
2008,09,01,08,12,9.30
2008,09,01,08,13,9.40
2008,09,01,08,14,9.50
2008,09,01,08,15,9.50
2008,09,01,08,16,9.60
2008,09,01,08,17,9.60
2008,09,01,08,18,9.70
2008,09,01,08,19,9.70
2008,09,01,08,20,9.70
2008,09,01,08,21,9.80
2008,09,01,08,22,9.80
2008,09,01,08,23,9.90
2008,09,01,08,24,9.90
2008,09,01,08,25,9.90
2008,09,01,08,26,10.00
2008,09,01,08,27,10.10
2008,09,01,08,28,10.10
2008,09,01,08,29,10.10
2008,09,01,08,30,10.20
2008,09,01,08,31,10.20
2008,09,01,08,32,10.20
2008,09,01,08,33,10.30
2008,09,01,08,34,10.30
2008,09,01,08,35,10.30
2008,09,01,08,36,10.40
2008,09,01,08,37,10.40
2008,09,01,08,38,10.50
2008,09,01,08,39,10.60
2008,09,01,08,40,10.70
2008,09,01,08,41,10.80
2008,09,01,08,42,10.90
2008,09,01,08,43,10.90
2008,09,01,08,44,11.10
2008,09,01,08,45,11.10
2008,09,01,08,46,11.20
2008,09,01,08,47,11.20
2008,09,01,08,48,11.30
2008,09,01,08,49,11.30
2008,09,01,08,50,11.40
2008,09,01,08,51,11.40
2008,09,01,08,52,11.40
2008,09,01,08,53,11.60
2008,09,01,08,54,11.60
2008,09,01,08,55,11.60
2008,09,01,08,56,11.60
2008,09,01,08,57,11.60
2008,09,01,08,58,11.70
2008,09,01,08,59,11.70
2008,09,01,09,00,11.70
2008,09,01,09,01,11.90
2008,09,01,09,02,12.00
2008,09,01,09,03,12.00
2008,09,01,09,04,12.10
2008,09,01,09,05,12.10
2008,09,01,09,06,12.10
2008,09,01,09,07,12.10
2008,09,01,09,08,12.20
2008,09,01,09,09,12.30
2008,09,01,09,10,12.40
2008,09,01,09,11,12.50
2008,09,01,09,12,12.60
2008,09,01,09,13,12.70
2008,09,01,09,14,12.80
2008,09,01,09,15,12.80
2008,09,01,09,16,12.90
2008,09,01,09,17,12.90
2008,09,01,09,18,13.00
2008,09,01,09,19,13.10
2008,09,01,09,20,13.10
2008,09,01,09,21,13.10
2008,09,01,09,22,13.20
2008,09,01,09,23,13.30
2008,09,01,09,24,13.30
2008,09,01,09,25,13.30
2008,09,01,09,26,13.40
2008,09,01,09,27,13.50
2008,09,01,09,28,13.50
2008,09,01,09,29,13.60
2008,09,01,09,30,13.60
2008,09,01,09,31,13.60
2008,09,01,09,32,13.60
2008,09,01,09,33,13.60
2008,09,01,09,34,13.60
2008,09,01,09,35,13.60
2008,09,01,09,36,13.70
2008,09,01,09,37,13.70
2008,09,01,09,38,13.70
2008,09,01,09,39,13.70
2008,09,01,09,40,13.60
2008,09,01,09,41,13.60
2008,09,01,09,42,13.60
2008,09,01,09,43,13.60
2008,09,01,09,44,13.60
2008,09,01,09,45,13.60
2008,09,01,09,46,13.60
2008,09,01,09,47,13.70
2008,09,01,09,48,13.70
2008,09,01,09,49,13.70
2008,09,01,09,50,13.70
2008,09,01,09,51,13.70
2008,09,01,09,52,13.70
2008,09,01,09,53,13.90
2008,09,01,09,54,14.00
2008,09,01,09,55,14.10
2008,09,01,09,56,14.20
2008,09,01,09,57,14.20
2008,09,01,09,58,14.40
2008,09,01,09,59,14.50
2008,09,01,10,00,14.60
2008,09,01,10,01,14.70
2008,09,01,10,02,14.80
2008,09,01,10,03,14.80
2008,09,01,10,04,14.80
2008,09,01,10,05,14.80
2008,09,01,10,06,14.70
2008,09,01,10,07,14.60
2008,09,01,10,08,14.60
2008,09,01,10,09,14.50
2008,09,01,10,10,14.50
2008,09,01,10,11,14.60
2008,09,01,10,12,14.60
2008,09,01,10,13,14.70
2008,09,01,10,14,14.70
2008,09,01,10,15,14.70
2008,09,01,10,16,14.70
2008,09,01,10,17,14.70
2008,09,01,10,18,14.80
2008,09,01,10,19,14.80
2008,09,01,10,20,14.80
2008,09,01,10,21,14.80
2008,09,01,10,22,14.90
2008,09,01,10,23,15.00
2008,09,01,10,24,15.10
2008,09,01,10,25,15.10
2008,09,01,10,26,15.10
2008,09,01,10,27,15.10
2008,09,01,10,28,15.10
2008,09,01,10,29,15.10
2008,09,01,10,30,15.10
2008,09,01,10,31,15.00
2008,09,01,10,32,15.10
2008,09,01,10,33,15.10
2008,09,01,10,34,15.20
2008,09,01,10,35,15.10
2008,09,01,10,36,15.00
2008,09,01,10,37,15.00
2008,09,01,10,38,14.90
2008,09,01,10,39,14.90
2008,09,01,10,40,14.90
2008,09,01,10,41,14.90
2008,09,01,10,42,14.90
2008,09,01,10,43,14.90
2008,09,01,10,44,14.90
2008,09,01,10,45,15.00
2008,09,01,10,46,15.10
2008,09,01,10,47,15.20
2008,09,01,10,48,15.20
2008,09,01,10,49,15.30
2008,09,01,10,50,15.30
2008,09,01,10,51,15.30
2008,09,01,10,52,15.20
2008,09,01,10,53,15.20
2008,09,01,10,54,15.20
2008,09,01,10,55,15.00
2008,09,01,10,56,15.00
2008,09,01,10,57,14.90
2008,09,01,10,58,14.90
2008,09,01,10,59,14.90
2008,09,01,11,00,14.90
2008,09,01,11,01,14.90
2008,09,01,11,02,14.80
2008,09,01,11,03,14.90
2008,09,01,11,04,14.90
2008,09,01,11,05,15.00
2008,09,01,11,06,15.00
2008,09,01,11,07,14.90
2008,09,01,11,08,14.90
2008,09,01,11,09,14.80
2008,09,01,11,10,14.80
2008,09,01,11,11,14.70
2008,09,01,11,12,14.70
2008,09,01,11,13,14.70
2008,09,01,11,14,14.70
2008,09,01,11,15,14.70
2008,09,01,11,16,14.70
2008,09,01,11,17,14.70
2008,09,01,11,18,14.70
2008,09,01,11,19,14.70
2008,09,01,11,20,14.60
2008,09,01,11,21,14.70
2008,09,01,11,22,14.70
2008,09,01,11,23,14.80
2008,09,01,11,24,14.80
2008,09,01,11,25,14.90
2008,09,01,11,26,15.00
2008,09,01,11,27,15.00
2008,09,01,11,28,15.00
2008,09,01,11,29,14.90
2008,09,01,11,30,14.90
2008,09,01,11,31,14.90
2008,09,01,11,32,15.10
2008,09,01,11,33,15.20
2008,09,01,11,34,15.40
2008,09,01,11,35,15.60
2008,09,01,11,36,15.50
2008,09,01,11,37,15.50
2008,09,01,11,38,15.40
2008,09,01,11,39,15.40
2008,09,01,11,40,15.40
2008,09,01,11,41,15.40
2008,09,01,11,42,15.30
2008,09,01,11,43,15.30
2008,09,01,11,44,15.30
2008,09,01,11,45,15.20
2008,09,01,11,46,15.20
2008,09,01,11,47,15.20
2008,09,01,11,48,15.20
2008,09,01,11,49,15.30
2008,09,01,11,50,15.30
2008,09,01,11,51,15.40
2008,09,01,11,52,15.50
2008,09,01,11,53,15.60
2008,09,01,11,54,15.80
2008,09,01,11,55,15.80
2008,09,01,11,56,15.70
2008,09,01,11,57,15.50
2008,09,01,11,58,15.40
2008,09,01,11,59,15.30
2008,09,01,12,00,15.20
2008,09,01,12,01,15.20
2008,09,01,12,02,15.10
2008,09,01,12,03,15.10
2008,09,01,12,04,15.10
2008,09,01,12,05,15.20
2008,09,01,12,06,15.30
2008,09,01,12,07,15.50
2008,09,01,12,08,15.60
2008,09,01,12,09,15.70
2008,09,01,12,10,15.80
2008,09,01,12,11,16.00
2008,09,01,12,12,16.10
2008,09,01,12,13,16.10
2008,09,01,12,14,16.20
2008,09,01,12,15,16.20
2008,09,01,12,16,16.10
2008,09,01,12,17,16.10
2008,09,01,12,18,15.80
2008,09,01,12,19,15.70
2008,09,01,12,20,15.60
2008,09,01,12,21,15.70
2008,09,01,12,22,15.60
2008,09,01,12,23,15.50
2008,09,01,12,24,15.40
2008,09,01,12,25,15.40
2008,09,01,12,26,15.40
2008,09,01,12,27,15.40
2008,09,01,12,28,15.40
2008,09,01,12,29,15.50
2008,09,01,12,30,15.60
2008,09,01,12,31,15.80
2008,09,01,12,32,15.80
2008,09,01,12,33,15.80
2008,09,01,12,34,15.90
2008,09,01,12,35,15.80
2008,09,01,12,36,15.80
2008,09,01,12,37,15.80
2008,09,01,12,38,15.80
2008,09,01,12,39,15.80
2008,09,01,12,40,15.90
2008,09,01,12,41,16.10
2008,09,01,12,42,16.10
2008,09,01,12,43,16.20
2008,09,01,12,44,16.30
2008,09,01,12,45,16.40
2008,09,01,12,46,16.50
2008,09,01,12,47,16.60
2008,09,01,12,48,16.60
2008,09,01,12,49,16.60
2008,09,01,12,50,16.60
2008,09,01,12,51,16.40
2008,09,01,12,52,16.40
2008,09,01,12,53,16.40
2008,09,01,12,54,16.40
2008,09,01,12,55,16.40
2008,09,01,12,56,16.40
2008,09,01,12,57,16.30
2008,09,01,12,58,16.20
2008,09,01,12,59,16.20
2008,09,01,13,00,16.20
2008,09,01,13,01,16.20
2008,09,01,13,02,16.20
2008,09,01,13,03,16.20
2008,09,01,13,04,16.30
2008,09,01,13,05,16.40
2008,09,01,13,06,16.50
2008,09,01,13,07,16.40
2008,09,01,13,08,16.50
2008,09,01,13,09,16.40
2008,09,01,13,10,16.40
2008,09,01,13,11,16.40
2008,09,01,13,12,16.60
2008,09,01,13,13,16.60
2008,09,01,13,14,16.60
2008,09,01,13,15,16.60
2008,09,01,13,16,16.60
2008,09,01,13,17,16.60
2008,09,01,13,18,16.30
2008,09,01,13,19,16.20
2008,09,01,13,20,16.10
2008,09,01,13,21,16.00
2008,09,01,13,22,15.90
2008,09,01,13,23,15.80
2008,09,01,13,24,15.80
2008,09,01,13,25,15.90
2008,09,01,13,26,16.00
2008,09,01,13,27,16.10
2008,09,01,13,28,16.10
2008,09,01,13,29,16.20
2008,09,01,13,30,16.20
2008,09,01,13,31,16.30
2008,09,01,13,32,16.20
2008,09,01,13,33,16.20
2008,09,01,13,34,16.30
2008,09,01,13,35,16.30
2008,09,01,13,36,16.30
2008,09,01,13,37,16.40
2008,09,01,13,38,16.40
2008,09,01,13,39,16.40
2008,09,01,13,40,16.40
2008,09,01,13,41,16.50
2008,09,01,13,42,16.60
2008,09,01,13,43,16.70
2008,09,01,13,44,16.70
2008,09,01,13,45,16.70
2008,09,01,13,46,16.70
2008,09,01,13,47,16.70
2008,09,01,13,48,16.60
2008,09,01,13,49,16.50
2008,09,01,13,50,16.40
2008,09,01,13,51,16.50
2008,09,01,13,52,16.60
2008,09,01,13,53,16.60
2008,09,01,13,54,16.70
2008,09,01,13,55,16.80
2008,09,01,13,56,16.80
2008,09,01,13,57,16.70
2008,09,01,13,58,16.60
2008,09,01,13,59,16.60
2008,09,01,14,00,16.60
2008,09,01,14,01,16.60
2008,09,01,14,02,16.60
2008,09,01,14,03,16.60
2008,09,01,14,04,16.60
2008,09,01,14,05,16.60
2008,09,01,14,06,16.60
2008,09,01,14,07,16.50
2008,09,01,14,08,16.40
2008,09,01,14,09,16.30
2008,09,01,14,10,16.10
2008,09,01,14,11,16.10
2008,09,01,14,12,16.10
2008,09,01,14,13,16.10
2008,09,01,14,14,16.10
2008,09,01,14,15,16.10
2008,09,01,14,16,15.90
2008,09,01,14,17,15.90
2008,09,01,14,18,16.00
2008,09,01,14,19,16.10
2008,09,01,14,20,16.20
2008,09,01,14,21,16.30
2008,09,01,14,22,16.40
2008,09,01,14,23,16.60
2008,09,01,14,24,16.50
2008,09,01,14,25,16.50
2008,09,01,14,26,16.60
2008,09,01,14,27,16.70
2008,09,01,14,28,16.80
2008,09,01,14,29,16.90
2008,09,01,14,30,17.10
2008,09,01,14,31,17.20
2008,09,01,14,32,17.20
2008,09,01,14,33,17.20
2008,09,01,14,34,17.30
2008,09,01,14,35,17.20
2008,09,01,14,36,17.00
2008,09,01,14,37,16.90
2008,09,01,14,38,16.80
2008,09,01,14,39,16.80
2008,09,01,14,40,16.90
2008,09,01,14,41,16.90
2008,09,01,14,42,17.00
2008,09,01,14,43,17.20
2008,09,01,14,44,17.20
2008,09,01,14,45,17.20
2008,09,01,14,46,17.20
2008,09,01,14,47,17.30
2008,09,01,14,48,17.30
2008,09,01,14,49,17.30
2008,09,01,14,50,17.40
2008,09,01,14,51,17.40
2008,09,01,14,52,17.40
2008,09,01,14,53,17.50
2008,09,01,14,54,17.40
2008,09,01,14,55,17.40
2008,09,01,14,56,17.30
2008,09,01,14,57,17.40
2008,09,01,14,58,17.40
2008,09,01,14,59,17.50
2008,09,01,15,00,17.60
2008,09,01,15,01,17.60
2008,09,01,15,02,17.60
2008,09,01,15,03,17.40
2008,09,01,15,04,17.30
2008,09,01,15,05,17.30
2008,09,01,15,06,17.30
2008,09,01,15,07,17.20
2008,09,01,15,08,17.20
2008,09,01,15,09,17.20
2008,09,01,15,10,17.20
2008,09,01,15,11,17.20
2008,09,01,15,12,17.20
2008,09,01,15,13,17.30
2008,09,01,15,14,17.30
2008,09,01,15,15,17.40
2008,09,01,15,16,17.50
2008,09,01,15,17,17.60
2008,09,01,15,18,17.70
2008,09,01,15,19,17.80
2008,09,01,15,20,17.80
2008,09,01,15,21,17.80
2008,09,01,15,22,17.80
2008,09,01,15,23,17.60
2008,09,01,15,24,17.50
2008,09,01,15,25,17.40
2008,09,01,15,26,17.30
2008,09,01,15,27,17.20
2008,09,01,15,28,17.20
2008,09,01,15,29,17.20
2008,09,01,15,30,17.20
2008,09,01,15,31,17.20
2008,09,01,15,32,17.10
2008,09,01,15,33,17.20
2008,09,01,15,34,17.30
2008,09,01,15,35,17.30
2008,09,01,15,36,17.20
2008,09,01,15,37,17.10
2008,09,01,15,38,17.10
2008,09,01,15,39,17.00
2008,09,01,15,40,16.90
2008,09,01,15,41,16.90
2008,09,01,15,42,16.80
2008,09,01,15,43,16.60
2008,09,01,15,44,16.40
2008,09,01,15,45,16.40
2008,09,01,15,46,16.30
2008,09,01,15,47,16.10
2008,09,01,15,48,16.00
2008,09,01,15,49,15.80
2008,09,01,15,50,15.80
2008,09,01,15,51,15.80
2008,09,01,15,52,15.80
2008,09,01,15,53,15.80
2008,09,01,15,54,15.80
2008,09,01,15,55,15.80
2008,09,01,15,56,15.80
2008,09,01,15,57,15.80
2008,09,01,15,58,15.70
2008,09,01,15,59,15.60
2008,09,01,16,00,15.70
2008,09,01,16,01,15.70
2008,09,01,16,02,15.70
2008,09,01,16,03,15.80
2008,09,01,16,04,15.80
2008,09,01,16,05,16.00
2008,09,01,16,06,16.20
2008,09,01,16,07,16.20
2008,09,01,16,08,16.30
2008,09,01,16,09,16.20
2008,09,01,16,10,16.20
2008,09,01,16,11,16.10
2008,09,01,16,12,16.10
2008,09,01,16,13,16.10
2008,09,01,16,14,16.10
2008,09,01,16,15,16.20
2008,09,01,16,16,16.20
2008,09,01,16,17,16.20
2008,09,01,16,18,16.30
2008,09,01,16,19,16.20
2008,09,01,16,20,16.20
2008,09,01,16,21,16.10
2008,09,01,16,22,16.10
2008,09,01,16,23,16.00
2008,09,01,16,24,15.90
2008,09,01,16,25,15.90
2008,09,01,16,26,16.00
2008,09,01,16,27,16.10
2008,09,01,16,28,16.10
2008,09,01,16,29,15.90
2008,09,01,16,30,15.80
2008,09,01,16,31,15.80
2008,09,01,16,32,15.80
2008,09,01,16,33,15.70
2008,09,01,16,34,15.60
2008,09,01,16,35,15.50
2008,09,01,16,36,15.60
2008,09,01,16,37,15.60
2008,09,01,16,38,15.60
2008,09,01,16,39,15.60
2008,09,01,16,40,15.60
2008,09,01,16,41,15.50
2008,09,01,16,42,15.40
2008,09,01,16,43,15.50
2008,09,01,16,44,15.50
2008,09,01,16,45,15.50
2008,09,01,16,46,15.50
2008,09,01,16,47,15.40
2008,09,01,16,48,15.40
2008,09,01,16,49,15.30
2008,09,01,16,50,15.30
2008,09,01,16,51,15.20
2008,09,01,16,52,15.20
2008,09,01,16,53,15.20
2008,09,01,16,54,15.20
2008,09,01,16,55,15.30
2008,09,01,16,56,15.30
2008,09,01,16,57,15.30
2008,09,01,16,58,15.30
2008,09,01,16,59,15.30
2008,09,01,17,00,15.30
2008,09,01,17,01,15.30
2008,09,01,17,02,15.30
2008,09,01,17,03,15.20
2008,09,01,17,04,15.20
2008,09,01,17,05,15.30
2008,09,01,17,06,15.30
2008,09,01,17,07,15.30
2008,09,01,17,08,15.30
2008,09,01,17,09,15.20
2008,09,01,17,10,15.20
2008,09,01,17,11,15.20
2008,09,01,17,12,15.20
2008,09,01,17,13,15.20
2008,09,01,17,14,15.10
2008,09,01,17,15,15.10
2008,09,01,17,16,15.10
2008,09,01,17,17,15.20
2008,09,01,17,18,15.20
2008,09,01,17,19,15.20
2008,09,01,17,20,15.30
2008,09,01,17,21,15.20
2008,09,01,17,22,15.10
2008,09,01,17,23,15.10
2008,09,01,17,24,15.00
2008,09,01,17,25,15.00
2008,09,01,17,26,15.10
2008,09,01,17,27,15.10
2008,09,01,17,28,15.10
2008,09,01,17,29,15.10
2008,09,01,17,30,15.10
2008,09,01,17,31,15.10
2008,09,01,17,32,15.10
2008,09,01,17,33,15.10
2008,09,01,17,34,15.10
2008,09,01,17,35,15.20
2008,09,01,17,36,15.30